This demonstration page uses our WeatherBlox Daily Observations layout. Learn more.

Left ArrowRight Arrow

39.01783, -85.05884

Hourly Observations for March 2, 2016

Temp ( °F °C ) Dew Point ( °F °C ) Humidity (%) Winds ( mph kmh ) Pressure ( in mb ) Visibility ( mi km ) Precip ( " mm )
12:52 am 00:52 Cloudy 29 -1.7 20 -6.7 69 69 WNW 22 35 30.02 1017 10 16 0.00 0.00
1:52 am 01:52 Cloudy 28 -2.2 18 -7.8 66 66 NW 14 22 30.05 1018 10 16 0.00 0.00
2:52 am 02:52 Cloudy 27 -2.8 18 -7.8 69 69 NW 14 22 30.06 1018 10 16 0.00 0.00
3:52 am 03:52 Cloudy with Light Snow 27 -2.8 20 -6.7 75 75 WNW 14 22 30.08 1019 7 11 0.00 0.03
4:52 am 04:52 Cloudy 26 -3.3 18 -7.8 71 71 WNW 14 22 30.10 1019 10 16 0.00 0.03
5:30 am 05:30 Cloudy with Light Snow 25 -4 18 -8 74 74 W 17 28 30.18 1022 8 13 0.00 0.03
5:52 am 05:52 Cloudy 25 -3.9 17 -8.3 72 72 W 15 24 30.13 1020 10 16 0.00 0.03
6:52 am 06:52 Cloudy with Light Snow 25 -3.9 16 -8.9 69 69 W 12 19 30.16 1021 9 14 0.00 0.03
7:52 am 07:52 Cloudy 25 -3.9 15 -9.4 66 66 W 13 20 30.18 1022 10 16 0.00 0.03
8:33 am 08:33 Partly Cloudy 25 -4 16 -9 69 69 W 8 13 30.24 1024 10 16 0.00 0.00
8:52 am 08:52 Partly Cloudy 25 -3.9 15 -9.4 66 66 WNW 7 11 30.19 1022 10 16 0.00 0.00
9:17 am 09:17 Mostly Cloudy 25 -4 14 -10 63 63 WNW 9 15 30.24 1024 10 16 0.00 0.00
9:52 am 09:52 Mostly Cloudy 26 -3.3 16 -8.9 66 66 SW 8 13 30.21 1023 10 16 0.00 0.00
10:52 am 10:52 Mostly Cloudy 29 -1.7 16 -8.9 58 58 W 9 15 30.21 1023 10 16 0.00 0.00
11:52 am 11:52 Partly Cloudy 31 -0.6 15 -9.4 52 52 W 7 11 30.21 1023 10 16 0.00 0.00
12:52 pm 12:52 Mostly Sunny 34 1.1 14 -10 44 44 WNW 13 20 30.20 1023 10 16 0.00 0.00
1:52 pm 13:52 Mostly Sunny 35 1.7 14 -10 42 42 NW 8 13 30.18 1022 10 16 0.00 0.00
2:52 pm 14:52 Partly Cloudy 36 2.2 15 -9.4 42 42 NW 9 15 30.16 1022 10 16 0.00 0.00
3:52 pm 15:52 Partly Cloudy 36 2.2 13 -10.6 39 39 NW 8 13 30.16 1021 10 16 0.00 0.00
4:52 pm 16:52 Mostly Sunny 37 2.8 12 -11.1 36 36 W 10 17 30.17 1022 10 16 0.00 0.00
5:52 pm 17:52 Mostly Sunny 36 2.2 14 -10 40 40 WSW 3 6 30.17 1022 10 16 0.00 0.00
6:52 pm 18:52 Mostly Clear 34 1.1 13 -10.6 42 42 Calm 30.18 1022 10 16 0.00 0.00
7:52 pm 19:52 Mostly Clear 30 -1.1 18 -7.8 61 61 S 3 6 30.19 1022 10 16 0.00 0.00
8:52 pm 20:52 Mostly Clear 30 -1.1 18 -7.8 61 61 S 3 6 30.17 1022 10 16 0.00 0.00
9:52 pm 21:52 Mostly Clear 30 -1.1 18 -7.8 61 61 S 3 6 30.17 1022 10 16 0.00 0.00
10:52 pm 22:52 Mostly Clear 30 -1.1 20 -6.7 66 66 Calm 30.17 1022 10 16 0.00 0.00
11:52 pm 23:52 Partly Cloudy 30 -1.1 20 -6.7 66 66 SSE 3 6 30.16 1021 10 16 0.00 0.00

Powered by AerisWeather